全部
Lilydale Airport (Lilydale, Victoria) YLIL 天气
There is no TAF data available at YLIL or any nearby airports.
There is no METAR data available at YLIL. Showing METAR data for YCEM (4 mi SE).
YCEM近期METAR历史数据(YLIL无数据)
| Date | Time (AEST) | Flight Rules | Wind Dir. | Speed | Type | Height AGL (ft) | Visibility | Temp (°C) | Temp (°F) | Dew Point (°C) | Dew Point (°F) | Rel. Humid. | Pressure | Density Altitude | Remarks |
|---|---|---|---|---|---|---|---|---|---|---|---|---|---|---|---|
| 03-五月 | 13:00 | n/a | 10° | 7 kt | Missing | 18° | 64° | 15° | 59° | 83% | 1011 mb | 758 ft | |||
| 03-五月 | 12:00 | n/a | 50° | 8 kt | Missing | 17° | 62° | 17° | 62° | 100% | 1011 mb | 638 ft | |||
| 03-五月 | 11:00 | n/a | 360° | 6 kt | Missing | 18° | 64° | 17° | 62° | 94% | 1012 mb | 729 ft | |||
| 03-五月 | 10:00 | n/a | 10° | 5 kt | Missing | 19° | 66° | 15° | 59° | 78% | 1012 mb | 849 ft | |||
| 03-五月 | 09:00 | n/a | 360° | 7 kt | Missing | 21° | 69° | 14° | 57° | 64% | 1012 mb | 1,089 ft | |||
| 03-五月 | 08:00 | n/a | 10° | 9 kt | Missing | 19° | 66° | 15° | 59° | 78% | 1012 mb | 849 ft | |||
| 03-五月 | 07:00 | n/a | 350° | 5 kt | Missing | 18° | 64° | 15° | 59° | 83% | 1013 mb | 699 ft | |||
| 03-五月 | 06:00 | n/a | 10° | 7 kt | Missing | 19° | 66° | 14° | 57° | 73% | 1013 mb | 819 ft | |||
| 03-五月 | 05:00 | n/a | 40° | 5 kt | Missing | 20° | 68° | 14° | 57° | 68% | 1012 mb | 969 ft | |||
| 03-五月 | 04:00 | n/a | 350° | 7 kt | Missing | 22° | 71° | 13° | 55° | 57% | 1013 mb | 1,179 ft | |||
| 03-五月 | 03:00 | n/a | 10° | 5 kt | Missing | 22° | 71° | 12° | 53° | 53% | 1013 mb | 1,179 ft | |||
| 03-五月 | 02:00 | n/a | 360° | 3 kt | Missing | 22° | 71° | 11° | 51° | 50% | 1013 mb | 1,179 ft | |||
| 03-五月 | 01:00 | n/a | 10° | 7 kt | Missing | 22° | 71° | 11° | 51° | 50% | 1013 mb | 1,179 ft | |||
| 03-五月 | 00:00 | n/a | 10° | 7 kt | Missing | 22° | 71° | 11° | 51° | 50% | 1014 mb | 1,150 ft | Wind gusting to 18 KT | ||
| 02-五月 | 23:00 | n/a | 350° | 1 kt | Missing | 20° | 68° | 11° | 51° | 56% | 1014 mb | 910 ft | |||
| 02-五月 | 22:00 | n/a | 50° | 5 kt | Missing | 22° | 71° | 10° | 50° | 46% | 1015 mb | 1,120 ft | |||
| 02-五月 | 21:00 | n/a | 40° | 5 kt | Missing | 22° | 71° | 10° | 50° | 46% | 1015 mb | 1,120 ft | |||
| 02-五月 | 20:00 | n/a | 60° | 4 kt | Missing | 20° | 68° | 11° | 51° | 56% | 1015 mb | 880 ft | |||
| 02-五月 | 19:00 | n/a | 70° | 3 kt | Missing | 20° | 68° | 10° | 50° | 53% | 1015 mb | 880 ft | |||
| 02-五月 | 18:00 | n/a | 60° | 4 kt | Missing | 21° | 69° | 11° | 51° | 53% | 1015 mb | 1,000 ft | |||
| 02-五月 | 17:00 | n/a | 60° | 4 kt | Missing | 22° | 71° | 10° | 50° | 46% | 1015 mb | 1,120 ft | |||
| 02-五月 | 16:00 | n/a | 40° | 7 kt | Missing | 24° | 75° | 9° | 48° | 38% | 1015 mb | 1,360 ft | |||
| 02-五月 | 15:00 | n/a | 30° | 7 kt | Missing | 24° | 75° | 9° | 48° | 38% | 1015 mb | 1,360 ft | |||
| 02-五月 | 14:00 | n/a | 40° | 5 kt | Missing | 23° | 73° | 11° | 51° | 47% | 1016 mb | 1,211 ft |
登录
| 您的浏览器不支持. 升级您的浏览器 |
